Wetbulb
68.58 70.07 66.88 65.53 64.93 65.57 66.33 67.02 68.19 68.17 67.96 67.81 68.38 68.17 68.24 68.38 68.18 68.48 68.13 68.05 66.75 65.75 65.06 64.60 64.14 63.46 63.02 62.40 61.97 63.71 63.95 63.11
65.86 68.19 66.95 67.39 67.67 63.15 64.91 66.78 66.17 66.79 67.20 67.08 66.71 66.73 67.14 67.01 66.68 67.61 67.83 67.46 66.26 64.97 64.56 63.97 63.53 62.75 61.99 61.53 61.67 62.89 62.88 63.09
63.60 63.56 65.73 66.08 65.55 65.28 64.22 65.41 66.02 65.97 66.59 66.39 65.55 67.00 65.89 66.16 66.08 66.65 66.92 66.23 65.38 64.45 64.06 63.19 62.36 62.01 61.73 61.20 61.40 62.63 62.91 62.50
62.12 62.88 63.30 64.30 64.07 64.87 66.41 66.83 67.01 66.16 66.34 65.46 65.41 65.04 63.88 65.75 66.53 65.86 65.61 64.83 64.13 63.82 63.15 62.25 61.75 61.80 61.61 60.79 62.21 62.77 62.95 62.66
62.63 62.77 63.49 62.59 62.88 63.67 64.41 65.88 65.61 65.33 64.80 63.57 64.38 64.00 65.06 66.01 66.60 66.21 65.44 63.48 62.62 62.55 62.07 61.61 61.69 61.32 60.79 61.48 62.20 62.63 62.73 62.66
63.76 62.23 63.01 62.49 61.45 62.01 63.93 64.52 65.17 64.95 63.05 62.27 61.23 62.21 63.01 64.57 65.63 65.17 64.38 64.07 62.98 62.29 61.88 62.34 61.95 61.58 61.15 61.38 61.74 61.80 62.38 62.32
64.28 64.28 63.50 63.60 63.73 63.45 62.80 62.52 63.44 61.12 61.06 60.97 60.34 59.63 59.94 61.47 64.02 64.47 64.01 64.33 63.70 62.80 62.78 61.59 60.90 60.70 60.97 60.98 61.03 61.62 62.06 62.04
63.41 62.75 62.36 62.43 61.90 62.51 61.91 61.21 60.61 60.07 59.70 58.52 58.92 58.61 58.76 59.21 59.62 60.18 62.87 64.11 63.82 62.87 62.15 60.37 59.59 59.92 60.06 60.62 60.83 61.60 62.10 62.22
61.77 62.62 61.94 61.05 61.38 60.98 60.85 61.71 60.35 58.66 57.79 58.11 58.39 59.02 59.20 58.14 57.82 57.94 59.16 61.99 62.37 62.17 61.48 60.53 58.86 59.33 59.33 60.06 60.53 60.93 61.33 61.72
61.46 62.50 60.73 61.06 60.88 61.87 60.82 60.36 59.92 58.81 57.26 56.64 57.28 57.66 58.37 57.44 56.80 56.70 57.92 58.82 59.67 60.02 60.31 58.57 58.69 58.50 58.40 59.08 59.75 60.48 60.80 61.15
61.08 60.52 59.45 58.87 60.24 60.49 60.46 59.49 58.85 58.96 57.57 56.70 57.30 57.85 58.16 57.84 57.74 58.39 58.71 57.51 56.93 57.81 58.36 58.11 57.14 57.40 57.57 58.58 59.08 59.35 60.23 60.05
61.10 59.49 58.66 58.81 59.53 59.80 59.60 58.92 58.38 58.31 57.41 56.54 57.24 57.61 60.10 59.98 58.81 59.14 58.78 57.26 56.82 56.86 56.79 57.13 57.08 56.67 55.00 55.88 57.27 58.27 58.89 59.29
59.16 57.67 58.18 58.50 58.65 59.08 57.95 57.17 57.22 57.00 57.50 58.04 58.08 57.66 59.45 58.89 59.44 59.45 59.25 57.87 58.34 57.89 57.56 57.14 56.49 56.53 54.76 55.08 55.33 56.42 56.77 56.53
58.01 57.82 58.02 58.97 59.86 60.52 59.42 58.15 58.51 57.41 56.98 57.13 56.88 57.03 57.11 57.82 59.06 59.39 59.99 58.91 57.33 57.68 58.63 57.86 58.52 56.83 55.15 56.62 53.57 54.55 55.00 55.46
57.18 58.07 57.69 58.28 59.57 60.01 59.16 58.66 58.57 56.76 56.43 56.11 56.95 57.02 57.67 57.42 57.93 59.16 58.35 59.48 58.51 58.69 58.26 57.53 56.69 57.21 57.39 56.86 52.42 51.76 53.91 56.14
57.52 58.40 57.84 57.97 58.95 58.63 58.90 57.90 55.25 57.00 56.03 56.47 56.59 57.12 57.01 58.40 58.69 60.15 59.81 60.16 60.32 60.30 59.76 59.59 59.88 57.20 56.82 57.14 58.78 56.91 52.37 54.12
57.84 58.88 58.05 57.92 57.88 59.11 58.72 57.39 57.92 58.56 56.81 56.28 56.27 57.27 58.39 57.42 58.55 58.89 59.81 61.16 61.02 61.61 60.97 60.27 60.30 59.49 58.95 58.64 57.47 54.03 53.64 52.55
58.24 57.94 57.91 59.11 57.81 58.05 58.31 57.14 56.20 56.22 56.18 55.85 56.10 55.78 55.91 57.49 57.74 59.89 60.31 61.21 61.32 62.02 62.45 61.82 61.26 60.78 61.19 59.61 57.77 54.95 56.39 56.30
57.66 58.42 57.24 57.97 58.71 58.12 58.73 58.03 56.28 56.32 56.88 56.76 55.44 55.66 55.93 56.49 56.95 58.01 59.87 61.22 62.36 62.51 62.41 62.61 61.76 61.03 61.11 60.27 59.84 59.15 60.13 59.06
56.68 58.54 58.86 59.11 58.37 58.89 59.24 58.60 58.32 59.42 60.53 60.24 58.60 56.96 57.54 56.99 57.61 58.28 59.92 61.00 61.88 61.89 62.69 62.46 62.60 62.14 61.54 61.46 60.68 61.09 60.81 59.56
MSLP
1012.45 1012.36 1012.08 1013.20 1013.52 1013.54 1013.54 1013.46 1013.68 1014.39 1014.73 1015.73 1016.21 1016.79 1017.34 1017.82 1018.50 1018.19 1018.21 1019.35 1020.21 1020.94 1021.39 1021.67 1022.10 1022.43 1022.62 1022.86 1022.85 1022.60 1022.22 1022.82
1012.76 1012.41 1012.77 1013.09 1013.44 1014.17 1014.29 1014.26 1014.55 1015.04 1015.49 1015.62 1016.53 1017.35 1017.82 1017.90 1018.80 1018.88 1018.61 1019.38 1020.60 1021.15 1021.76 1021.93 1022.46 1022.99 1023.20 1023.40 1023.39 1022.93 1022.71 1022.74
1013.33 1013.41 1013.29 1013.65 1014.11 1014.21 1014.82 1014.61 1014.91 1015.19 1015.28 1015.52 1016.70 1017.12 1018.14 1018.22 1018.31 1019.18 1019.00 1019.79 1020.91 1021.53 1022.02 1022.43 1022.85 1023.45 1023.76 1023.84 1023.40 1022.71 1022.72 1022.84
1013.38 1013.36 1013.52 1013.75 1013.96 1014.16 1014.47 1014.50 1014.54 1014.96 1015.23 1015.69 1016.30 1016.85 1018.07 1018.09 1018.66 1019.51 1019.50 1020.29 1021.28 1021.81 1022.26 1022.70 1022.83 1023.20 1023.88 1023.91 1022.83 1023.11 1022.92 1023.21
1013.31 1013.33 1013.43 1013.69 1013.86 1014.01 1014.24 1014.20 1014.50 1014.49 1015.16 1015.10 1015.95 1017.04 1018.14 1018.80 1018.64 1019.52 1019.87 1020.31 1021.03 1021.85 1022.49 1021.92 1022.14 1022.59 1023.34 1022.80 1023.31 1023.35 1023.38 1023.69
1012.93 1013.44 1013.63 1013.86 1014.08 1014.22 1014.27 1014.26 1014.22 1014.43 1015.11 1014.26 1015.71 1017.24 1018.13 1018.67 1018.22 1018.87 1019.52 1019.50 1020.63 1021.40 1021.66 1021.82 1022.32 1022.66 1023.09 1023.22 1023.39 1023.35 1023.56 1024.12
1012.49 1012.91 1013.30 1013.40 1013.58 1013.56 1013.84 1013.96 1013.99 1014.54 1014.76 1015.21 1015.89 1017.50 1018.27 1018.77 1018.39 1018.98 1019.38 1019.44 1020.33 1020.94 1021.50 1022.16 1022.57 1023.06 1023.29 1023.38 1023.60 1023.72 1024.05 1024.33
1012.14 1012.74 1013.04 1013.22 1013.42 1013.70 1013.77 1013.94 1014.08 1014.42 1014.63 1015.62 1016.33 1017.35 1018.38 1019.01 1018.87 1019.51 1019.34 1019.75 1020.22 1020.87 1021.78 1022.07 1022.36 1022.76 1023.31 1023.46 1023.79 1024.11 1024.34 1024.55
1012.22 1012.60 1013.05 1013.24 1013.52 1013.89 1013.96 1014.10 1014.57 1015.07 1015.86 1016.57 1017.02 1017.77 1018.80 1018.40 1019.29 1019.90 1020.09 1020.17 1020.73 1021.01 1021.91 1022.02 1022.49 1022.76 1023.26 1023.63 1023.97 1024.36 1024.53 1024.79
1011.99 1012.42 1013.06 1013.26 1013.64 1013.85 1014.08 1014.56 1014.77 1015.60 1016.67 1017.33 1017.70 1018.13 1018.25 1018.78 1019.13 1019.99 1020.27 1020.78 1021.12 1021.68 1021.72 1022.15 1022.45 1022.70 1023.22 1023.60 1023.79 1024.31 1024.68 1024.92
1011.79 1012.45 1013.05 1013.50 1013.66 1014.12 1014.08 1014.78 1015.23 1016.06 1016.69 1017.13 1017.31 1017.94 1018.25 1018.85 1018.76 1019.60 1020.48 1021.00 1021.70 1021.77 1021.95 1022.16 1022.60 1022.73 1023.22 1023.40 1023.69 1023.99 1024.49 1024.61
1011.61 1012.53 1013.02 1013.39 1013.88 1014.24 1014.41 1015.12 1015.69 1016.38 1016.89 1017.41 1017.61 1018.04 1017.94 1018.31 1019.20 1020.00 1020.51 1021.17 1021.39 1021.54 1021.76 1022.47 1022.59 1022.75 1022.98 1023.49 1023.78 1023.92 1024.20 1024.59
1011.79 1012.50 1012.88 1013.25 1013.76 1013.99 1014.54 1015.10 1016.19 1016.84 1017.10 1017.09 1017.52 1018.09 1017.89 1018.79 1019.48 1020.20 1020.42 1020.66 1021.13 1021.48 1021.98 1022.87 1023.02 1023.28 1023.24 1023.37 1023.82 1024.15 1024.23 1024.45
1011.75 1012.30 1012.76 1012.91 1013.17 1013.40 1014.36 1015.09 1016.14 1016.79 1017.03 1017.33 1017.78 1018.18 1018.28 1018.94 1019.56 1019.79 1020.31 1020.38 1020.54 1021.55 1022.08 1022.58 1023.00 1023.47 1023.12 1022.89 1023.28 1023.84 1023.99 1024.15
1011.43 1012.01 1012.63 1012.94 1013.14 1013.49 1014.54 1015.09 1015.89 1016.74 1017.11 1017.32 1017.55 1017.82 1018.22 1018.94 1019.50 1019.67 1019.86 1019.85 1021.07 1021.73 1022.10 1022.50 1022.55 1023.27 1023.40 1023.03 1023.30 1023.22 1023.50 1023.50
1011.08 1011.66 1012.37 1012.86 1013.04 1013.29 1014.02 1014.65 1015.06 1015.75 1016.57 1017.06 1017.41 1017.78 1018.29 1018.66 1019.22 1019.33 1019.22 1020.51 1020.81 1021.16 1021.48 1021.91 1021.85 1022.24 1023.14 1023.16 1023.47 1023.57 1023.76 1023.04
1010.79 1011.12 1011.98 1012.55 1012.99 1013.07 1013.47 1014.34 1014.98 1015.50 1016.33 1016.96 1017.28 1017.74 1018.07 1018.41 1018.49 1019.19 1019.43 1020.03 1020.24 1020.52 1021.05 1021.40 1021.57 1021.56 1021.82 1022.22 1022.89 1023.60 1023.87 1023.80
1010.02 1010.48 1011.21 1011.81 1012.51 1012.96 1013.24 1013.89 1014.82 1015.51 1016.15 1016.65 1017.11 1017.55 1017.89 1017.67 1018.36 1018.84 1019.22 1019.71 1019.74 1020.05 1020.40 1020.80 1020.96 1021.11 1021.17 1021.70 1021.86 1022.35 1022.21 1022.46
1009.29 1009.75 1010.35 1011.18 1011.77 1012.37 1012.75 1013.36 1014.09 1014.68 1015.25 1015.90 1016.53 1016.94 1017.21 1017.73 1018.42 1018.53 1018.71 1019.02 1018.99 1019.31 1019.83 1020.24 1020.40 1020.33 1020.37 1020.94 1021.39 1021.58 1021.21 1021.75
1008.50 1008.71 1009.17 1010.12 1010.83 1011.51 1012.13 1012.74 1013.28 1013.70 1014.01 1014.34 1015.11 1015.74 1016.27 1017.22 1017.80 1017.94 1018.16 1018.38 1018.40 1018.79 1019.24 1019.51 1019.75 1019.83 1020.09 1020.26 1020.50 1020.66 1020.94 1021.22
Wind_Speed
8 12 8 7 7 1 6 12 20 23 24 17 18 18 19 20 17 21 25 22 22 20 19 19 18 18 17 12 7 3 14 12
5 9 7 10 7 1 1 7 12 14 14 19 17 17 18 21 18 19 24 25 21 21 18 18 18 16 15 10 5 4 13 13
4 4 8 7 5 4 5 7 15 17 20 25 19 14 15 21 18 18 23 23 20 20 18 18 17 15 14 12 12 8 10 9
5 5 4 4 1 5 6 6 7 12 15 18 15 16 14 14 19 20 22 23 20 20 19 19 17 12 10 11 5 8 6 9
8 6 3 4 3 4 2 4 5 8 9 10 17 14 11 12 12 12 14 20 13 15 15 12 14 11 12 7 9 8 6 8
11 8 8 7 3 4 4 4 6 6 9 14 12 9 11 10 10 14 13 12 16 13 10 10 12 11 9 10 9 8 6 7
8 8 7 7 7 5 4 2 6 7 12 16 12 11 9 9 11 10 11 12 13 12 10 10 11 11 10 10 9 8 8 7
6 6 6 5 4 4 4 6 8 10 9 9 12 10 7 8 10 9 8 8 10 10 10 10 9 9 9 10 9 8 7 8
7 7 7 6 6 3 6 8 10 10 9 11 9 11 11 10 10 8 6 9 11 8 10 9 8 8 9 9 8 8 7 7
7 6 8 8 7 4 4 7 9 11 9 10 11 11 13 10 9 8 7 7 7 9 9 8 8 8 8 7 7 7 8 8
9 7 9 9 8 4 7 9 9 7 7 6 10 11 11 10 8 7 10 9 8 7 8 7 7 7 8 7 6 7 8 8
9 7 10 9 7 6 5 9 8 5 8 9 14 12 12 10 12 11 10 10 9 8 9 6 7 7 7 6 6 6 6 7
8 9 11 9 8 9 6 9 10 7 7 14 14 14 16 10 9 12 11 9 10 9 8 7 5 5 6 5 5 6 7 6
10 12 12 11 10 10 4 10 9 7 7 11 10 11 11 8 12 10 11 6 8 6 9 6 4 6 4 5 5 7 9 10
11 12 12 10 9 9 7 6 7 5 6 7 8 10 11 10 8 9 7 7 7 9 10 11 7 6 7 4 2 4 2 5
12 13 13 10 11 11 16 9 10 9 8 7 8 9 11 13 9 9 8 9 11 11 10 9 10 8 7 8 4 2 2 4
13 15 14 14 13 13 12 11 10 7 8 8 9 9 11 10 9 9 11 10 11 11 11 12 10 9 8 6 8 2 6 7
16 17 16 16 15 14 16 16 11 10 11 11 8 8 6 8 8 8 10 9 11 11 13 13 12 11 9 8 7 5 9 10
16 19 18 17 18 16 18 18 15 17 17 14 14 10 9 12 13 11 9 12 13 12 10 13 13 13 11 10 9 10 10 8
19 21 21 21 20 20 16 16 11 14 18 16 13 12 14 16 14 14 15 15 14 12 11 10 11 10 14 13 10 10 10 9
Wind_Direction
185 177 111 96 68 50 175 149 153 161 156 174 157 153 150 146 144 136 133 128 128 128 129 127 126 125 118 115 145 221 124 126
153 179 156 173 157 136 68 156 160 168 167 156 171 160 149 136 137 131 125 124 129 130 131 124 122 118 112 107 120 188 127 125
135 143 167 179 198 178 265 221 194 190 176 170 174 153 153 146 136 132 123 123 128 128 125 121 116 117 120 142 186 123 138 122
169 170 188 190 244 272 229 230 217 207 185 186 168 145 161 147 134 134 125 125 127 126 126 128 152 142 144 176 148 131 132 120
176 188 201 206 206 222 262 253 216 219 190 187 159 155 153 158 137 141 135 135 137 139 139 161 144 148 164 153 132 152 136 118
170 183 183 183 186 217 215 231 204 191 147 107 122 132 152 154 144 151 151 150 148 151 165 140 151 151 154 139 154 137 138 126
205 196 182 196 197 179 160 151 167 118 150 129 132 135 142 149 135 147 157 147 159 162 150 153 150 156 156 155 152 137 138 137
225 195 176 185 199 151 129 106 126 113 94 102 119 127 139 162 130 139 150 151 156 151 163 157 153 149 155 148 149 147 158 146
199 186 177 173 167 119 124 136 115 101 109 121 135 143 166 139 144 131 144 147 158 149 162 160 154 160 156 156 153 157 149 157
199 176 174 174 167 138 116 144 128 121 132 146 150 159 145 141 136 133 119 136 137 164 168 157 156 168 158 162 165 168 166 168
190 178 163 155 155 116 118 132 136 120 135 150 142 149 142 154 132 131 150 151 152 165 160 157 164 172 171 171 176 180 182 187
189 157 159 154 146 123 124 135 127 120 147 164 162 164 150 147 157 155 166 166 154 157 148 170 188 172 173 179 188 198 196 205
170 158 165 157 161 149 141 142 145 139 163 160 166 166 148 163 148 164 166 161 154 143 146 184 178 175 176 177 197 214 215 217
172 177 170 179 181 166 139 149 153 145 150 153 152 172 139 131 163 156 173 148 115 149 168 185 182 185 204 194 197 196 217 216
181 179 178 184 191 160 123 118 140 137 144 150 161 162 159 153 175 170 156 132 179 182 185 195 193 186 212 240 177 252 114 197
184 182 180 178 183 162 166 158 163 169 168 170 161 175 171 177 175 188 138 198 201 196 195 209 220 196 193 229 261 59 299 235
190 187 184 176 181 185 178 171 174 170 178 170 178 181 192 177 174 196 189 203 211 205 204 211 217 228 206 179 216 191 237 255
193 189 185 184 182 181 180 173 167 169 178 190 189 184 196 183 201 197 206 212 214 213 210 209 212 227 223 208 211 198 219 233
189 191 184 190 186 185 181 180 173 181 181 187 183 188 190 201 218 212 212 221 228 221 216 219 213 223 215 226 230 242 245 246
187 195 187 189 191 190 188 183 183 189 194 189 188 192 193 202 207 213 221 227 234 234 238 236 229 228 227 224 232 235 238 223